Total_Precipitation_Accumulation
1.20 1.18 1.20 1.10 1.02 0.97 1.00 1.20 1.53 1.34 0.79 0.50 0.48 0.55 0.71 0.89 1.09 1.12 1.09 1.23 1.27 1.26 1.33 1.40 1.47 1.57 1.82 2.21 2.95 3.88 4.66 4.89 4.63 4.10 3.83 4.06 4.44 4.96
1.28 1.22 1.21 1.15 1.10 1.05 1.05 1.08 1.27 1.48 1.14 0.55 0.48 0.53 0.68 0.85 1.05 1.07 1.06 1.22 1.25 1.29 1.30 1.36 1.47 1.57 1.73 1.93 2.29 3.00 3.82 4.53 4.85 4.84 4.64 4.53 4.68 4.98
1.43 1.38 1.26 1.19 1.23 1.17 1.15 1.15 1.17 1.34 1.38 0.72 0.52 0.57 0.72 0.86 0.95 0.99 1.02 1.07 1.09 1.22 1.29 1.36 1.38 1.46 1.60 1.79 1.99 2.38 3.05 3.78 4.41 4.87 5.15 5.09 5.02 5.00
1.56 1.50 1.40 1.35 1.33 1.27 1.31 1.28 1.20 1.21 1.37 1.09 0.70 0.64 0.71 0.81 0.89 0.98 1.03 1.07 1.07 1.18 1.24 1.32 1.41 1.48 1.57 1.71 1.88 2.05 2.43 2.98 3.60 4.21 4.66 4.81 4.88 5.13
1.68 1.70 1.62 1.58 1.53 1.46 1.45 1.45 1.37 1.28 1.32 1.35 0.99 0.78 0.80 0.88 1.02 1.08 1.12 1.20 1.21 1.31 1.34 1.33 1.45 1.55 1.57 1.67 1.84 1.97 2.07 2.32 2.76 3.45 4.16 4.44 4.49 4.61
1.72 1.75 1.78 1.79 1.76 1.75 1.80 1.76 1.74 1.74 1.64 1.59 1.32 1.06 1.00 1.00 1.15 1.24 1.25 1.23 1.31 1.33 1.43 1.39 1.46 1.55 1.56 1.58 1.63 1.70 1.87 2.20 2.58 3.02 3.61 4.00 4.08 4.13
1.78 1.75 1.77 1.92 2.09 2.24 2.36 2.26 2.16 2.23 2.15 2.04 1.78 1.49 1.31 1.29 1.35 1.31 1.37 1.33 1.37 1.38 1.37 1.32 1.29 1.29 1.37 1.51 1.65 1.71 1.80 2.03 2.29 2.68 3.14 3.59 3.89 3.97
1.84 1.75 1.75 1.86 1.96 2.13 2.31 2.29 2.29 2.47 2.55 2.41 2.14 1.84 1.47 1.34 1.43 1.59 1.71 1.79 1.72 1.46 1.44 1.47 1.38 1.41 1.42 1.44 1.67 1.75 1.82 2.04 2.23 2.42 2.80 3.18 3.57 3.94
1.63 1.63 1.65 1.69 1.82 1.70 1.87 1.95 1.96 2.08 2.28 2.39 2.40 1.99 1.69 1.56 1.82 2.04 2.04 2.05 1.78 1.57 1.72 1.90 1.72 1.65 1.56 1.63 1.82 1.73 1.80 1.94 2.13 2.28 2.44 2.78 3.17 3.60
1.46 1.46 1.48 1.49 1.60 1.78 1.85 1.79 1.63 1.61 1.79 1.95 2.12 1.99 1.89 1.94 2.28 2.61 2.70 2.71 2.37 2.00 1.92 2.21 1.99 1.90 1.82 1.77 1.86 1.77 1.78 1.85 1.94 2.12 2.32 2.53 2.79 3.13
1.44 1.46 1.49 1.39 1.63 1.94 1.97 1.87 1.64 1.49 1.58 1.84 2.06 2.17 2.30 2.48 2.75 3.15 3.30 3.39 3.17 2.60 2.25 2.31 2.18 2.07 2.07 2.03 1.98 1.92 1.83 1.86 1.88 1.97 2.15 2.36 2.60 2.87
1.45 1.48 1.70 1.68 1.79 1.91 1.86 1.92 1.91 1.59 1.41 1.49 1.61 1.75 1.85 2.06 2.50 2.74 3.00 3.30 3.21 2.97 2.41 2.34 2.37 2.37 2.60 2.24 1.95 1.82 1.80 1.91 1.92 1.89 1.92 2.06 2.33 2.50
1.62 1.61 1.65 1.84 1.82 1.86 1.88 1.84 1.92 1.80 1.65 1.65 1.62 1.60 1.68 1.83 2.04 2.29 2.61 3.03 3.25 3.01 2.40 2.59 2.83 2.65 2.72 2.46 2.07 1.88 1.77 1.74 1.71 1.77 1.85 1.92 2.07 2.26
1.68 1.53 1.61 1.86 1.83 1.86 1.81 1.87 1.98 1.94 1.80 1.76 1.66 1.55 1.54 1.68 1.78 1.99 2.32 2.52 2.68 2.72 2.42 2.68 3.16 2.85 2.85 2.57 2.27 2.11 1.94 1.84 1.70 1.61 1.58 1.81 1.94 2.12
1.71 1.82 1.77 1.80 1.78 1.69 1.68 1.77 1.78 1.69 1.77 1.77 1.61 1.43 1.35 1.46 1.60 1.80 2.09 2.34 2.44 2.45 2.43 2.48 2.79 2.84 2.95 2.82 2.33 2.10 2.15 2.11 1.84 1.68 1.60 1.56 1.60 1.82
1.75 1.85 1.82 1.70 1.66 1.62 1.62 1.59 1.53 1.60 1.71 1.67 1.50 1.39 1.37 1.46 1.62 1.74 1.97 2.19 2.47 2.47 2.41 2.47 2.70 3.04 3.12 2.64 2.40 2.23 2.04 2.19 2.02 1.79 1.67 1.62 1.58 1.61
1.97 1.93 1.83 1.75 1.74 1.63 1.53 1.48 1.46 1.56 1.64 1.52 1.50 1.53 1.55 1.60 1.66 1.67 1.85 2.03 2.26 2.21 2.25 2.46 2.69 2.90 3.06 2.95 2.75 2.32 2.06 1.99 1.95 1.89 1.84 1.84 1.81 1.75
1.98 1.93 1.72 1.58 1.54 1.49 1.47 1.45 1.40 1.38 1.39 1.44 1.51 1.55 1.58 1.61 1.65 1.66 1.78 1.96 2.07 2.00 2.04 2.24 2.54 2.85 3.06 3.22 2.94 2.44 2.14 2.05 1.98 1.93 1.87 1.94 2.01 1.96
1.65 1.56 1.48 1.42 1.39 1.37 1.36 1.36 1.33 1.25 1.30 1.43 1.50 1.52 1.55 1.59 1.63 1.65 1.72 1.84 1.92 1.92 1.97 2.10 2.40 2.74 2.85 2.81 2.87 2.51 2.29 2.18 2.08 2.09 2.02 1.92 1.99 2.01
1.41 1.38 1.38 1.37 1.37 1.39 1.35 1.32 1.29 1.28 1.35 1.42 1.47 1.49 1.54 1.62 1.63 1.59 1.60 1.72 1.82 1.84 1.89 1.98 2.23 2.60 2.86 2.67 2.66 2.61 2.51 2.34 2.19 2.20 2.13 2.00 1.99 2.07
1.31 1.30 1.31 1.38 1.39 1.36 1.33 1.31 1.31 1.31 1.29 1.35 1.40 1.44 1.48 1.58 1.58 1.47 1.49 1.60 1.71 1.76 1.79 1.76 1.89 2.22 2.57 2.66 2.59 2.42 2.50 2.63 2.40 2.26 2.21 2.22 2.20 2.16
1.20 1.23 1.23 1.28 1.37 1.39 1.34 1.33 1.32 1.28 1.29 1.33 1.33 1.35 1.39 1.48 1.52 1.45 1.49 1.58 1.58 1.59 1.64 1.66 1.72 2.01 2.45 2.72 2.56 2.30 2.32 2.53 2.71 2.54 2.33 2.29 2.50 2.67
1.23 1.22 1.20 1.20 1.26 1.32 1.36 1.34 1.30 1.22 1.20 1.27 1.30 1.29 1.34 1.42 1.40 1.44 1.46 1.50 1.54 1.54 1.59 1.68 1.73 1.91 2.21 2.40 2.52 2.41 2.28 2.29 2.38 2.52 2.68 2.40 2.06 2.02